Regional Weather Roundup
Issued by NWS

Home | Current Version | Previous Version | Text Only | Print | Product List | Glossary Off
Versions: 1 2 3 4 5 6 7 8 9 10 11 12 13 14 15 16 17 18 19 20 21 22 23 24 25 26 27 28 29 30 31 32 33 34 35 36 37 38 39 40 41 42 43 44 45 46 47 48 49 50

000
ASUS43 KIND 271509
RWRIN

WEATHER ROUNDUP FOR INDIANA
NATIONAL WEATHER SERVICE INDIANAPOLIS IN
1000 AM EST TUE JAN 27 2015

NOTE: "FAIR" INDICATES FEW OR NO CLOUDS BELOW 12,000 FEET WITH NO
SIGNIFICANT WEATHER AND/OR OBSTRUCTIONS TO VISIBILITY.

* - STATION DOES NOT REPORT WEATHER SUCH AS PRECIPITATION OR FOG.

+ - STATION NOT QUALITY CONTROLLED BY THE NATIONAL WEATHER SERVICE.
    USE DATA WITH CAUTION...ESPECIALLY DEWPOINT AND RELATIVE
    HUMIDITY OBSERVATIONS.

INZ001>003-010>013-019-020-271600-
NORTHWEST INDIANA

CITY           SKY/WX    TMP DP  RH WIND       PRES   REMARKS
GARY /AIRPORT/ CLOUDY    28  18  64 NE9       30.12R WCI  20
KNOX *+        CLOUDY    24   3  40 E8        30.11R WCI  16
LA PORTE +     CLOUDY    26  16  66 E6        30.11R WCI  19
MICHIGAN CITY+ CLOUDY    25  12  58 NE3       30.12R
MONTICELLO +   CLOUDY    24  18  80 NE7       30.09R WCI  15
RENSSELAER +   CLOUDY    27  25  93 NE6       30.11R WCI  20
VALPARAISO     CLOUDY    24  15  68 NE6       30.11R WCI  17

$$

LMZ046-743>745-271600-
SOUTHERN LAKE MICHIGAN

STATION/POSITION TIME  TEMP WIND        PRES
                       AIR  DIR/SP/G
                 (UTC) (F)  (DEG/KT/KT) (MB)
MICHIGAN CITY    1500   24   60/  5/  7   N/A

$$

INZ004-005-014>016-021>024-271600-
NORTH CENTRAL INDIANA

CITY           SKY/WX    TMP DP  RH WIND       PRES   REMARKS
ELKHART        PTSUNNY   21   9  58 NE6       30.12R WCI  14
GOSHEN         CLOUDY    21  13  71 E8        30.10R WCI  11
LOGANSPORT +   CLOUDY    23  14  68 E7        30.10R WCI  15
PERU/GRISSOM   CLOUDY    21  13  71 E8        30.08R WCI  11
ROCHESTER +    CLOUDY    27  16  63 E8        30.10R WCI  18
SOUTH BEND     CLOUDY    23  12  62 NE8       30.12R WCI  14
WARSAW +       CLOUDY    21  14  73 CALM      30.10R

$$

INZ006>009-017-018-025>027-271600-
NORTHEAST INDIANA

CITY           SKY/WX    TMP DP  RH WIND       PRES   REMARKS
ANGOLA *+      SUNNY     18  10  73 E8        30.08S WCI   7
AUBURN +       MOSUNNY   21  12  68 NE8       30.11R WCI  12
FORT WAYNE     PTSUNNY   18  11  74 NE7       30.10R WCI   9
HUNTINGTON +   PTSUNNY   19   7  58 CALM      30.09R

$$

INZ028-029-035-036-043>045-051>053-271600-
WEST CENTRAL INDIANA

CITY           SKY/WX    TMP DP  RH WIND       PRES   REMARKS
CRAWFORDSVL +  CLOUDY    26  23  88 NE8       30.06R FOG     WCI  17
GREENCASTLE +  CLOUDY    28  27  93 NE7       30.06R FOG     WCI  21
LAFAYETTE      CLOUDY    25  22  88 NE9       30.09R FOG     WCI  15
TERRE HAUTE    CLOUDY    30  27  88 NE6       30.07R FOG     WCI  24

$$

INZ030>032-037>040-046>048-054>057-064-065-271600-
CENTRAL INDIANA

CITY           SKY/WX    TMP DP  RH WIND       PRES   REMARKS
ANDERSON       CLOUDY    21  10  63 E8        30.08R WCI  12
CP ATTERBURY + CLOUDY    28  23  80 E8        30.08R WCI  20
COLUMBUS       CLOUDY    27  19  74 MISG      30.08R
GREENWOOD *+   CLOUDY    27  19  74 NE8       30.07  WCI  18
INDIANAPOLIS   CLOUDY    24  21  88 NE8       30.07R WCI  15
-EAGLE CREEK   CLOUDY    26  21  81 E6        30.06R WCI  19
KOKOMO *+      CLOUDY    21  12  68 E6        30.09R WCI  14
MARION +       PTSUNNY   20  12  72 NE5       30.09R WCI  13
MT COMFORT *+  CLOUDY    25   9  50 E8        30.07R WCI  16
SHELBYVILLE    CLOUDY    25  16  68 E9        30.06R WCI  15
ZIONSVILLE +   CLOUDY    25  19  77 NE8       30.07R WCI  16

$$

INZ033-034-041-042-049-050-058-059-271600-
EAST CENTRAL INDIANA

CITY           SKY/WX    TMP DP  RH WIND       PRES   REMARKS
MUNCIE         PTSUNNY   20  11  68 E7        30.07R WCI  11

$$

INZ060-061-067>069-081>083-085>088-271600-
SOUTHWEST INDIANA

CITY           SKY/WX    TMP DP  RH WIND       PRES   REMARKS
EVANSVILLE     CLOUDY    34  30  85 N6        30.07R FOG     WCI  29
HUNTINGBURG *+ CLOUDY    30  28  93 CALM      30.06R
WASHINGTON +   CLOUDY    30  27  88 NE6       30.07R FOG     WCI  24

$$

INZ062-063-066-070>080-084-089>092-271600-
SOUTH CENTRAL AND SOUTHEAST INDIANA

CITY           SKY/WX    TMP DP  RH WIND       PRES   REMARKS
BLOOMINGTON    CLOUDY    29  26  89 NE7       30.04R WCI  22
SEYMOUR +      CLOUDY    30  25  80 NE7       30.07  WCI  23

$$



USA.gov is the U.S. government's official web portal to all federal, state and local government web resources and services.